| time (UTC) | temp F | wind direction | speed knots | gust knots | rain 1hr in | rain 24hr in | rain mn in | humidity % | barometer mb |
| 20260505064903 | 48 | 223 | 0.0 | 0.0 | 0.00 | 0.03 | 0.00 | 84 | 1004.7 |
| 20260505064403 | 48 | 223 | 0.0 | 5.2 | 0.00 | 0.03 | 0.00 | 83 | 1004.6 |
| 20260505063403 | 48 | 221 | 1.7 | 4.3 | 0.00 | 0.03 | 0.00 | 82 | 1004.5 |
| 20260505062903 | 48 | 87 | 0.0 | 0.0 | 0.00 | 0.03 | 0.00 | 82 | 1004.3 |
| 20260505062403 | 48 | 87 | 0.0 | 0.0 | 0.00 | 0.03 | 0.00 | 82 | 1004.2 |
| 20260505061904 | 48 | 87 | 0.0 | 0.0 | 0.00 | 0.03 | 0.00 | 82 | 1004.1 |
| 20260505061403 | 48 | 87 | 0.0 | 0.0 | 0.00 | 0.03 | 0.00 | 83 | 1004.0 |
| 20260505060903 | 48 | 87 | 0.0 | 0.0 | 0.00 | 0.03 | 0.00 | 83 | 1003.9 |
| 20260505055903 | 48 | 87 | 0.0 | 0.0 | 0.00 | 0.03 | 0.03 | 83 | 1003.8 |
| 20260505055403 | 47 | 87 | 0.0 | 0.0 | 0.00 | 0.03 | 0.03 | 83 | 1003.8 |
| 20260505054903 | 47 | 87 | 0.0 | 0.0 | 0.00 | 0.03 | 0.03 | 83 | 1003.8 |
| 20260505054403 | 47 | 87 | 0.0 | 0.0 | 0.00 | 0.03 | 0.03 | 83 | 1003.8 |
| 20260505053403 | 47 | 87 | 0.0 | 0.0 | 0.00 | 0.03 | 0.03 | 83 | 1004.1 |
| 20260505052903 | 47 | 87 | 0.0 | 0.0 | 0.00 | 0.03 | 0.03 | 83 | 1004.1 |
| 20260505052403 | 48 | 87 | 0.0 | 0.0 | 0.00 | 0.03 | 0.03 | 82 | 1004.3 |
| 20260505051903 | 48 | 87 | 0.0 | 0.0 | 0.00 | 0.03 | 0.03 | 82 | 1004.3 |
| 20260505051404 | 48 | 87 | 0.0 | 0.0 | 0.00 | 0.03 | 0.03 | 82 | 1004.2 |
| 20260505050904 | 48 | 87 | 0.0 | 0.0 | 0.00 | 0.03 | 0.03 | 81 | 1004.2 |
| 20260505050403 | 48 | 87 | 0.0 | 0.0 | 0.00 | 0.03 | 0.03 | 81 | 1004.2 |
| 20260505041403 | 49 | 38 | 0.0 | 0.0 | 0.01 | 0.03 | 0.03 | 81 | 1003.8 |
| 20260505040904 | 49 | 38 | 0.0 | 0.0 | 0.01 | 0.03 | 0.03 | 81 | 1003.7 |
| 20260505040403 | 49 | 24 | 0.0 | 0.0 | 0.01 | 0.03 | 0.03 | 82 | 1003.6 |
| 20260505035903 | 49 | 40 | 0.0 | 0.0 | 0.01 | 0.03 | 0.03 | 81 | 1003.6 |
| 20260505035403 | 50 | 40 | 0.0 | 0.0 | 0.02 | 0.03 | 0.03 | 79 | 1003.6 |
| 20260505034403 | 50 | 96 | 0.0 | 0.0 | 0.02 | 0.03 | 0.03 | 79 | 1003.5 |
| 20260505033903 | 50 | 98 | 0.0 | 0.0 | 0.02 | 0.03 | 0.03 | 80 | 1003.5 |
| 20260505033403 | 50 | 98 | 0.0 | 0.0 | 0.03 | 0.03 | 0.03 | 80 | 1003.3 |
| 20260505032403 | 50 | 97 | 0.0 | 0.0 | 0.03 | 0.03 | 0.03 | 80 | 1003.1 |
| 20260505031903 | 50 | 95 | 0.0 | 1.7 | 0.03 | 0.03 | 0.03 | 80 | 1003.0 |
| 20260505031403 | 51 | 86 | 0.0 | 2.6 | 0.02 | 0.02 | 0.02 | 80 | 1003.0 |
| 20260505030904 | 51 | 53 | 0.0 | 0.9 | 0.02 | 0.02 | 0.02 | 78 | 1003.0 |
| 20260505030404 | 51 | 34 | 0.0 | 0.0 | 0.02 | 0.02 | 0.02 | 76 | 1003.1 |
| 20260505025903 | 52 | 350 | 0.0 | 0.0 | 0.02 | 0.02 | 0.02 | 73 | 1003.0 |
| 20260505025404 | 52 | 344 | 0.0 | 0.0 | 0.01 | 0.01 | 0.01 | 72 | 1002.9 |
| 20260505024403 | 53 | 184 | 2.6 | 10.4 | 0.01 | 0.01 | 0.01 | 69 | 1003.3 |
| 20260505023903 | 53 | 92 | 1.7 | 10.4 | 0.01 | 0.01 | 0.01 | 69 | 1003.1 |
| 20260505022903 | 54 | 106 | 3.5 | 11.3 | 0.00 | 0.00 | 0.00 | 66 | 1002.5 |
| 20260505022403 | 54 | 85 | 1.7 | 8.7 | 0.00 | 0.00 | 0.00 | 66 | 1002.4 |
| 20260505021904 | 56 | 34 | 4.3 | 8.7 | 0.00 | 0.00 | 0.00 | 59 | 1002.4 |
| 20260505021403 | 58 | 23 | 1.7 | 6.1 | 0.00 | 0.00 | 0.00 | 51 | 1002.1 |
| 20260505020904 | 58 | 22 | 0.0 | 0.0 | 0.00 | 0.00 | 0.00 | 50 | 1002.1 |
| 20260505020404 | 59 | 346 | 0.0 | 0.0 | 0.00 | 0.00 | 0.00 | 46 | 1001.9 |
| 20260505015404 | 60 | 314 | 1.7 | 13.0 | 0.00 | 0.00 | 0.00 | 44 | 1001.6 |
| 20260505014903 | 60 | 247 | 0.0 | 0.0 | 0.00 | 0.00 | 0.00 | 43 | 1001.6 |
| 20260505013903 | 60 | 308 | 0.0 | 5.2 | 0.00 | 0.00 | 0.00 | 43 | 1001.3 |
| 20260505013404 | 61 | 225 | 0.9 | 7.0 | 0.00 | 0.00 | 0.00 | 43 | 1001.2 |
| 20260505012904 | 61 | 245 | 1.7 | 6.1 | 0.00 | 0.00 | 0.00 | 43 | 1000.8 |
| 20260505012404 | 62 | 220 | 0.0 | 4.3 | 0.00 | 0.00 | 0.00 | 43 | 1000.7 |
| 20260505011903 | 63 | 233 | 0.0 | 5.2 | 0.00 | 0.00 | 0.00 | 40 | 1000.5 |
| 20260505010403 | 63 | 241 | 0.0 | 4.3 | 0.00 | 0.00 | 0.00 | 38 | 1000.2 |
| 20260505005903 | 64 | 234 | 1.7 | 7.0 | 0.00 | 0.00 | 0.00 | 37 | 1000.2 |
| 20260505005403 | 64 | 231 | 1.7 | 7.8 | 0.00 | 0.00 | 0.00 | 37 | 1000.2 |
| 20260505004404 | 64 | 224 | 1.7 | 7.0 | 0.00 | 0.00 | 0.00 | 36 | 1000.3 |
| 20260505003904 | 64 | 232 | 4.3 | 10.4 | 0.00 | 0.00 | 0.00 | 35 | 1000.3 |
| 20260505003404 | 64 | 221 | 6.1 | 13.0 | 0.00 | 0.00 | 0.00 | 35 | 1000.3 |
| 20260505002903 | 65 | 229 | 2.6 | 10.4 | 0.00 | 0.00 | 0.00 | 35 | 1000.3 |
| 20260505002404 | 65 | 224 | 7.0 | 14.8 | 0.00 | 0.00 | 0.00 | 34 | 1000.3 |
| 20260505001901 | 66 | 225 | 4.3 | 8.7 | 0.00 | 0.00 | 0.00 | 34 | 1000.0 |
| 20260505001401 | 66 | 235 | 2.6 | 7.8 | 0.00 | 0.00 | 0.00 | 32 | 1000.1 |
| 20260505000901 | 65 | 219 | 0.0 | 2.6 | 0.00 | 0.00 | 0.00 | 30 | 1000.0 |
| 20260504235901 | 65 | 218 | 0.0 | 8.7 | 0.00 | 0.00 | 0.00 | 30 | 1000.3 |
| 20260504235401 | 66 | 235 | 9.6 | 20.0 | 0.00 | 0.00 | 0.00 | 30 | 1000.3 |
| 20260504234901 | 66 | 226 | 4.3 | 7.8 | 0.00 | 0.00 | 0.00 | 30 | 1000.2 |
| 20260504234401 | 66 | 230 | 6.1 | 10.4 | 0.00 | 0.00 | 0.00 | 31 | 1000.1 |
| 20260504233901 | 67 | 233 | 4.3 | 7.8 | 0.00 | 0.00 | 0.00 | 30 | 1000.0 |
| 20260504233402 | 67 | 224 | 1.7 | 4.3 | 0.00 | 0.00 | 0.00 | 30 | 1000.1 |
| 20260504232901 | 67 | 220 | 0.9 | 6.1 | 0.00 | 0.00 | 0.00 | 31 | 1000.1 |
| 20260504232401 | 67 | 105 | 0.0 | 0.0 | 0.00 | 0.00 | 0.00 | 31 | 999.9 |
| 20260504231902 | 67 | 105 | 0.0 | 1.7 | 0.00 | 0.00 | 0.00 | 31 | 999.9 |
| 20260504231401 | 67 | 105 | 2.6 | 6.1 | 0.00 | 0.00 | 0.00 | 31 | 999.9 |
| 20260504230401 | 67 | 73 | 0.9 | 5.2 | 0.00 | 0.00 | 0.00 | 31 | 999.9 |
| 20260504225901 | 67 | 38 | 0.9 | 5.2 | 0.00 | 0.00 | 0.00 | 31 | 1000.0 |
| 20260504225401 | 67 | 25 | 0.9 | 7.0 | 0.00 | 0.00 | 0.00 | 30 | 1000.1 |
| 20260504224901 | 67 | 92 | 0.9 | 5.2 | 0.00 | 0.00 | 0.00 | 32 | 1000.2 |
| 20260504224401 | 66 | 69 | 0.9 | 6.1 | 0.00 | 0.00 | 0.00 | 33 | 1000.1 |
| 20260504223901 | 65 | 152 | 0.0 | 0.0 | 0.00 | 0.00 | 0.00 | 33 | 1000.4 |
| 20260504223401 | 65 | 153 | 1.7 | 2.6 | 0.00 | 0.00 | 0.00 | 32 | 1000.4 |
| 20260504222901 | 66 | 96 | 0.9 | 2.6 | 0.00 | 0.00 | 0.00 | 34 | 1000.5 |
| 20260504222401 | 66 | 22 | 0.0 | 0.0 | 0.00 | 0.00 | 0.00 | 37 | 1000.5 |
| 20260504221901 | 66 | 20 | 0.0 | 0.0 | 0.00 | 0.00 | 0.00 | 30 | 1000.6 |
| 20260504221401 | 66 | 334 | 0.0 | 0.0 | 0.00 | 0.00 | 0.00 | 30 | 1000.6 |
| 20260504220901 | 67 | 334 | 0.0 | 4.3 | 0.00 | 0.00 | 0.00 | 29 | 1000.6 |
| 20260504220401 | 68 | 314 | 2.6 | 7.0 | 0.00 | 0.00 | 0.00 | 30 | 1000.5 |
| 20260504215402 | 67 | 281 | 0.0 | 5.2 | 0.00 | 0.00 | 0.00 | 32 | 1000.7 |
| 20260504214901 | 66 | 248 | 0.0 | 2.6 | 0.00 | 0.00 | 0.00 | 32 | 1000.8 |
| 20260504214401 | 66 | 330 | 0.0 | 2.6 | 0.00 | 0.00 | 0.00 | 32 | 1000.9 |
| 20260504213401 | 67 | 228 | 0.0 | 0.0 | 0.00 | 0.00 | 0.00 | 32 | 1001.0 |
| 20260504212902 | 67 | 130 | 0.9 | 4.3 | 0.00 | 0.00 | 0.00 | 32 | 1001.1 |
| 20260504212402 | 67 | 240 | 0.9 | 6.1 | 0.00 | 0.00 | 0.00 | 31 | 1001.0 |
| 20260504211901 | 68 | 135 | 0.9 | 4.3 | 0.00 | 0.00 | 0.00 | 28 | 1001.0 |
| 20260504211402 | 69 | 242 | 0.0 | 2.6 | 0.00 | 0.00 | 0.00 | 27 | 1000.8 |
| 20260504205902 | 71 | 268 | 5.2 | 7.8 | 0.00 | 0.00 | 0.00 | 25 | 1000.5 |
| 20260504205402 | 71 | 258 | 0.9 | 6.1 | 0.00 | 0.00 | 0.00 | 25 | 1000.6 |
| 20260504204901 | 71 | 267 | 2.6 | 11.3 | 0.00 | 0.00 | 0.00 | 24 | 1000.7 |
| 20260504204401 | 71 | 272 | 0.0 | 6.1 | 0.00 | 0.00 | 0.00 | 24 | 1000.7 |
| 20260504203402 | 71 | 317 | 0.9 | 7.0 | 0.00 | 0.00 | 0.00 | 25 | 1000.9 |
| 20260504202901 | 71 | 285 | 0.9 | 7.0 | 0.00 | 0.00 | 0.00 | 26 | 1001.0 |
| 20260504202402 | 70 | 341 | 0.0 | 0.0 | 0.00 | 0.00 | 0.00 | 27 | 1001.1 |
| 20260504201902 | 70 | 310 | 2.6 | 7.8 | 0.00 | 0.00 | 0.00 | 26 | 1001.3 |
| 20260504200902 | 71 | 286 | 0.9 | 5.2 | 0.00 | 0.00 | 0.00 | 27 | 1001.4 |
| 20260504200401 | 71 | 224 | 0.9 | 6.1 | 0.00 | 0.00 | 0.00 | 26 | 1001.5 |
| 20260504195902 | 70 | 248 | 2.6 | 7.8 | 0.00 | 0.00 | 0.00 | 28 | 1001.5 |
| 20260504195402 | 68 | 255 | 2.6 | 7.8 | 0.00 | 0.00 | 0.00 | 29 | 1001.6 |
| 20260504193901 | 69 | 270 | 1.7 | 12.2 | 0.00 | 0.00 | 0.00 | 31 | 1001.7 |
| 20260504193401 | 69 | 246 | 5.2 | 13.0 | 0.00 | 0.00 | 0.00 | 31 | 1001.7 |
| 20260504192901 | 68 | 265 | 4.3 | 13.0 | 0.00 | 0.00 | 0.00 | 31 | 1001.8 |
| 20260504192402 | 68 | 281 | 4.3 | 13.0 | 0.00 | 0.00 | 0.00 | 31 | 1001.8 |
| 20260504191901 | 69 | 315 | 4.3 | 8.7 | 0.00 | 0.00 | 0.00 | 30 | 1001.7 |
| 20260504190901 | 69 | 305 | 2.6 | 6.1 | 0.00 | 0.00 | 0.00 | 28 | 1001.8 |
| 20260504190402 | 69 | 236 | 0.9 | 5.2 | 0.00 | 0.00 | 0.00 | 28 | 1001.9 |
| 20260504185902 | 68 | 270 | 0.9 | 5.2 | 0.00 | 0.00 | 0.00 | 27 | 1002.0 |
| 20260504185402 | 70 | 89 | 0.9 | 5.2 | 0.00 | 0.00 | 0.00 | 26 | 1002.0 |
| 20260504184901 | 71 | 289 | 0.0 | 2.6 | 0.00 | 0.00 | 0.00 | 25 | 1002.1 |
| 20260504184402 | 71 | 228 | 4.3 | 7.0 | 0.00 | 0.00 | 0.00 | 25 | 1002.2 |
| 20260504183902 | 71 | 256 | 1.7 | 5.2 | 0.00 | 0.00 | 0.00 | 25 | 1002.3 |
| 20260504182902 | 68 | 325 | 0.9 | 4.3 | 0.00 | 0.00 | 0.00 | 27 | 1002.6 |
| 20260504182401 | 66 | 22 | 0.0 | 4.3 | 0.00 | 0.00 | 0.00 | 28 | 1002.6 |
| 20260504181902 | 66 | 16 | 0.0 | 5.2 | 0.00 | 0.00 | 0.00 | 28 | 1002.6 |
| 20260504181402 | 66 | 24 | 0.0 | 0.9 | 0.00 | 0.00 | 0.00 | 27 | 1002.8 |
| 20260504175902 | 67 | 193 | 0.9 | 6.1 | 0.00 | 0.00 | 0.00 | 26 | 1003.0 |
| 20260504175401 | 68 | 218 | 0.9 | 6.1 | 0.00 | 0.00 | 0.00 | 28 | 1003.1 |
| 20260504174901 | 67 | 259 | 3.5 | 7.0 | 0.00 | 0.00 | 0.00 | 27 | 1003.1 |
| 20260504174401 | 67 | 228 | 0.9 | 4.3 | 0.00 | 0.00 | 0.00 | 28 | 1003.1 |
| 20260504173403 | 67 | 226 | 5.2 | 7.8 | 0.00 | 0.00 | 0.00 | 28 | 1003.2 |
| 20260504172901 | 68 | 190 | 2.6 | 7.8 | 0.00 | 0.00 | 0.00 | 28 | 1003.2 |
| 20260504172402 | 67 | 241 | 2.6 | 7.0 | 0.00 | 0.00 | 0.00 | 27 | 1003.3 |
| 20260504171902 | 68 | 227 | 1.7 | 5.2 | 0.00 | 0.00 | 0.00 | 27 | 1003.3 |
| 20260504170402 | 66 | 229 | 0.9 | 4.3 | 0.00 | 0.00 | 0.00 | 30 | 1003.6 |
| 20260504160402 | 62 | 224 | 2.6 | 7.8 | 0.00 | 0.00 | 0.00 | 38 | 1004.2 |
| 20260504150902 | 60 | 199 | 0.0 | 0.9 | 0.00 | 0.00 | 0.00 | 43 | 1004.7 |
| 20260504150401 | 59 | 199 | 0.0 | 0.0 | 0.00 | 0.00 | 0.00 | 44 | 1004.8 |
| 20260504140902 | 53 | 217 | 0.0 | 0.0 | 0.00 | 0.00 | 0.00 | 60 | 1005.0 |
| 20260504140402 | 52 | 217 | 0.0 | 0.0 | 0.00 | 0.00 | 0.00 | 59 | 1005.1 |
| 20260504110402 | 52 | 22 | 0.0 | 0.0 | 0.00 | 0.00 | 0.00 | 58 | 1004.9 |
| 20260504100402 | 54 | 176 | 0.0 | 6.1 | 0.00 | 0.00 | 0.00 | 52 | 1005.1 |
| 20260504081903 | 55 | 201 | 0.9 | 7.8 | 0.00 | 0.00 | 0.00 | 51 | 1005.7 |
| 20260504080903 | 54 | 183 | 0.0 | 0.9 | 0.00 | 0.00 | 0.00 | 50 | 1005.6 |
| 20260504080403 | 54 | 167 | 0.0 | 0.0 | 0.00 | 0.00 | 0.00 | 50 | 1005.6 |
| 20260504070403 | 57 | 203 | 0.0 | 0.0 | 0.00 | 0.00 | 0.00 | 44 | 1005.6 |